Voltar ao catálogo

COSMOS 2251 DEB

AtivoLEO
NORAD 37326·DEBRIS·🇷🇺 Russia

Lançado Jun 16, 1993 de Plesetsk Cosmodrome

Loading…

Próximas Passagens (próximas 24 horas)

TLE

AtualizadoSource: Space-Track

Época: Sep 14, 2026, 02:16 UTC

1 37326U 93036BKS 26257.09506796  .00001184  00000-0  23313-3 0  9995
2 37326  74.0240 166.9496 0057271 227.8959 131.7333 14.62755679895088

Acompanhe COSMOS 2251 DEB em tempo real com AllMySat

Download on the App Store